Regional Weather Roundup
Issued by NWS New Orleans/Baton Rouge, LA

Home | Current Version | Previous Version | Graphics & Text | Print | Product List | Glossary On
Versions: 1 2 3 4 5 6 7 8 9 10 11 12 13 14 15 16 17 18 19 20 21 22 23 24 25 26 27 28 29 30 31 32 33 34 35 36 37 38 39 40 41 42 43 44 45 46 47 48 49 50
931
ASUS44 KLIX 022005
RWRLIX
NEW ORLEANS REGIONAL WEATHER ROUNDUP
NATIONAL WEATHER SERVICE NEW ORLEANS LA
200 PM CST MON MAR 02 2015

NOTE: "FAIR" INDICATES FEW OR NO CLOUDS BELOW 12,000 FEET WITH NO
      SIGNIFICANT WEATHER AND/OR OBSTRUCTIONS TO VISIBILITY.
      SKY/WX - SKY CONDITION AND SIGNIFICANT WEATHER.
      TMP - AIR TEMPERATURE.     DP    - DEWPOINT TEMPERATURE.
      RH  - RELATIVE HUMIDITY.   PRES  - PRESSURE.
      HI  - HEAT INDEX.          WCI   - WIND CHILL INDEX.

*  THESE STATIONS ARE NOT NWS OR FAA STATIONS AND ARE NOT UNDER
   NWS QUALITY CONTROL.

LAZ038-040-048-061>063-065>067-069-022100-
SOUTHEAST LOUISIANA

CITY           SKY/WX    TMP DP  RH WIND       PRES   REMARKS
N.O. AUDUBON   NOT AVBL
N.O. INTL ARPT LGT RAIN  75  70  84 S6        30.20F
N.O. LAKEFRONT CLOUDY    65  60  84 NE10      30.21F
SLIDELL        CLOUDY    71  67  87 NE5       30.21F
BATON ROUGE    FOG       65  64  97 NW5       30.21F VSB 3/4
BOOTHVILLE     SUNNY     76  69  79 S8        30.22F
BELLE CHASSE   PTSUNNY   78  68  71 SW10      30.19F
BOGALUSA*      RAIN      65  62  90 NE3       30.24F
GALLIANO*      MOCLDY    82  70  67 S12       30.20F
NEW ROADS*     LGT RAIN  52  52  99 NW6       30.24F
GONZALES*      MOCLDY    77  72  84 W7        30.19F
HAMMOND*       NOT AVBL
HOUMA*         NOT AVBL
PORT FOURCHON* CLEAR     75  70  83 S10       30.23F

$$

MSZ070-080>082-022100-
SOUTHERN MISSISSIPPI

CITY           SKY/WX    TMP DP  RH WIND       PRES   REMARKS
MCCOMB         CLOUDY    63  62  97 NE5       30.22F
GULFPORT       FOG       64  63  96 CALM      30.22F VSB 1/4
BILOXI         LGT RAIN  64  64 100 S6        30.22F FOG
PASCAGOULA     CLOUDY    70  66  87 S6        30.22F

$$

COASTAL OBSERVATIONS
LAKE AND NEARSHORE STATIONS

STATION/POSITION TIME  TEMP    WIND        PRES    WAVE
                       AIR SEA DIR/SP/G            HT/PER
                 (UTC) (F)     (DEG/KT/KT) (MB)    (FT/S)
PASCAGOULA       2000   65     110/  6/  9 1023.2
WAVELAND YACHT   2000   63 55   80/  2/  2 1023.3
GRAND ISLE       2000   73 60  180/  6/ 11 1023.3
SOUTHWEST PASS   2000   72 47  160/  8/  8 1023.4
NEW CANAL        2000           60/  5/  5 1023.4
SHELL BEACH      2000   64 56   60/  5/  5 1022.9

OFFSHORE STATIONS

STATION/POSITION TIME  TEMP    WIND        PRES    WAVE
                       AIR SEA DIR/SP/G            HT/PER
                 (UTC) (F)     (DEG/KT/KT) (MB)    (FT/S)
64 S DAUPHIN ISL 1947   71 72  150/ 12/ 12 1023.7    3/ 5

$$




USA.gov is the U.S. government's official web portal to all federal, state and local government web resources and services.